Weather History for Defiance, OH

Change the Weather History Date:

Wednesday, December 28, 2011

  Actual Average Record
Temperature  
Mean Temperature 29 °F -  
Max Temperature 32 °F 34 °F 62 °F (1982)
Min Temperature 26 °F 17 °F -10 °F (1950)
Degree Days  
Heating Degree Days 36    
Moisture  
Dew Point 19 °F    
Average Humidity 66    
Maximum Humidity 78    
Minimum Humidity 59    
Precipitation  
Precipitation 0.00 in - - ()
Sea Level Pressure  
Sea Level Pressure 30.00 in    
Wind  
Wind Speed 13 mph (NW)    
Max Wind Speed 24 mph    
Max Gust Speed 33 mph    
Visibility 10 miles    
Events      
Averages and records for this station are not official NWS values.
T = Trace of Precipitation, MM = Missing Value Source: NWS Daily Summary

Daily Weather History Graph

Daily Weather History Graph

Search for Another Location

Airport:

Trip Planner

Search our weather history database for the weather conditions in past years. The results will help you decide how hot, cold, wet, or windy it might be!

Date:

Astronomy

Dec. 28, 2011 Rise Set
Actual Time 8:02 AM EST 5:15 PM EST
Civil Twilight 7:31 AM EST 5:46 PM EST
Nautical Twilight 6:56 AM EST 6:21 PM EST
Astronomical Twilight 6:23 AM EST 6:55 PM EST
Moon 10:25 AM EST (12/28) 9:54 PM EST (12/28)
Length of Visible Light 10h 15m
Length of Day
9h 12m
Waxing Crescent, 18% of the Moon is Illuminated
Dec 28
Waxing Crescent
Jan 1
First Quarter
Jan 9
Full
Jan 16
Last Quarter
Jan 23
New

Hourly Weather History & Observations

Time (EST) Temp. Windchill Dew Point Humidity Pressure Visibility Wind Dir Wind Speed Gust Speed Precip Events Conditions
12:53 AM 30.0 °F 16.3 °F 21.0 °F 69% 29.84 in 10.0 mi NW 24.2 mph 33.4 mph N/A   Overcast
1:53 AM 30.0 °F 16.3 °F 19.9 °F 66% 29.86 in 10.0 mi NW 24.2 mph 32.2 mph N/A   Overcast
2:53 AM 28.9 °F 17.7 °F 19.0 °F 67% 29.90 in 10.0 mi NW 15.0 mph 25.3 mph N/A   Overcast
3:50 AM 28.4 °F 15.1 °F 17.6 °F 64% 29.91 in 10.0 mi NW 20.7 mph 28.8 mph N/A   Overcast
3:53 AM 28.9 °F 15.8 °F 18.0 °F 64% 29.93 in 10.0 mi NNW 20.7 mph 28.8 mph N/A   Overcast
4:53 AM 28.9 °F 16.9 °F 17.1 °F 61% 29.95 in 10.0 mi NW 17.3 mph 28.8 mph N/A   Overcast
5:53 AM 27.0 °F 16.7 °F 16.0 °F 63% 29.97 in 10.0 mi NW 11.5 mph - N/A   Overcast
6:12 AM 26.6 °F 15.7 °F 15.8 °F 64% 29.95 in 10.0 mi NNW 12.7 mph - N/A   Overcast
6:53 AM 27.0 °F 15.2 °F 16.0 °F 63% 29.99 in 10.0 mi NNW 15.0 mph 21.9 mph N/A   Overcast
7:53 AM 26.1 °F 16.8 °F 16.0 °F 66% 30.01 in 10.0 mi NNW 9.2 mph - N/A   Overcast
8:53 AM 26.1 °F 19.4 °F 17.1 °F 69% 30.04 in 10.0 mi NW 5.8 mph - N/A   Mostly Cloudy
9:53 AM 28.0 °F 19.3 °F 17.1 °F 63% 30.06 in 10.0 mi NNW 9.2 mph - N/A   Overcast
10:53 AM 28.9 °F 21.1 °F 18.0 °F 64% 30.06 in 10.0 mi NNW 8.1 mph - N/A   Overcast
11:53 AM 28.9 °F 21.9 °F 18.0 °F 64% 30.06 in 10.0 mi NNW 6.9 mph - N/A   Overcast
12:53 PM 30.0 °F 21.1 °F 18.0 °F 61% 30.04 in 10.0 mi NW 10.4 mph - N/A   Overcast
1:53 PM 30.9 °F 25.2 °F 18.0 °F 59% 30.03 in 10.0 mi West 5.8 mph - N/A   Overcast
2:02 PM 30.2 °F 24.3 °F 17.6 °F 60% 30.00 in 10.0 mi Variable 5.8 mph - N/A   Overcast
2:31 PM 30.2 °F 25.4 °F 19.4 °F 64% 30.01 in 10.0 mi Variable 4.6 mph - N/A   Overcast
2:53 PM 30.9 °F 26.2 °F 19.0 °F 61% 30.04 in 10.0 mi Variable 4.6 mph - N/A   Scattered Clouds
3:13 PM 32.0 °F 25.6 °F 19.4 °F 60% 30.01 in 10.0 mi NW 6.9 mph - N/A   Mostly Cloudy
3:44 PM 30.2 °F 25.4 °F 19.4 °F 64% 30.02 in 10.0 mi Variable 4.6 mph - N/A   Scattered Clouds
3:53 PM 30.9 °F 26.2 °F 19.0 °F 61% 30.05 in 10.0 mi Variable 4.6 mph - N/A   Scattered Clouds
4:03 PM 32.0 °F 27.5 °F 19.4 °F 60% 30.02 in 10.0 mi Variable 4.6 mph - N/A   Mostly Cloudy
4:53 PM 30.0 °F 25.2 °F 19.0 °F 64% 30.05 in 10.0 mi Variable 4.6 mph - N/A   Mostly Cloudy
5:53 PM 28.0 °F - 18.0 °F 66% 30.06 in 10.0 mi Calm Calm - N/A   Clear
6:53 PM 28.0 °F - 19.9 °F 72% 30.05 in 10.0 mi Calm Calm - N/A   Partly Cloudy
7:53 PM 28.0 °F 24.2 °F 21.0 °F 75% 30.05 in 10.0 mi South 3.5 mph - N/A   Overcast
8:53 PM 26.1 °F 21.9 °F 19.9 °F 78% 30.04 in 10.0 mi SSW 3.5 mph - N/A   Clear
9:53 PM 27.0 °F 23.0 °F 21.0 °F 78% 30.03 in 10.0 mi SSW 3.5 mph - N/A   Overcast
10:53 PM 28.9 °F 23.9 °F 21.9 °F 75% 30.02 in 10.0 mi SSW 4.6 mph - N/A   Overcast
11:53 PM 28.9 °F 23.9 °F 23.0 °F 78% 29.99 in 10.0 mi South 4.6 mph - N/A   Overcast